Find Local Weather

World > North America > United States > Iowa

Glenwood, Iowa Regional Weather

Lat: 41.05N, Lon: 95.74W
Wx Zone: IAZ079
Feedback
Expires:201810220200;;543305
ASUS43 KDMX 220106
RWRIA 

WEATHER ROUNDUP FOR IOWA
NATIONAL WEATHER SERVICE DES MOINES IA
800 PM CDT SUN OCT 21 2018

NOTE: "FAIR" INDICATES FEW OR NO CLOUDS BELOW 12,000 FEET WITH NO
SIGNIFICANT WEATHER AND/OR OBSTRUCTIONS TO VISIBILITY.

* - THESE STATIONS ARE NOT NWS STATIONS...THUS NOT UNDER NWS
QUALITY CONTROL.  THEY ALSO DO NOT REPORT WEATHER SUCH 
AS PRECIPITATION OR FOG.  


IAZ055>058-069>071-079>083-090>094-220200-
   SOUTHWEST IOWA
  
CITY           SKY/WX    TMP DP  RH WIND       PRES   REMARKS
ATLANTIC *     CLEAR     50  39  66 CALM      30.03R                  
AUDUBON *      CLEAR     45  37  76 CALM      30.03S                  
CLARINDA *     CLEAR     54  41  62 S7        30.07R                  
COUNCIL BLFS * CLEAR     61  41  48 SW10      30.02R                  
CRESTON *      CLEAR     50  39  66 SW8       30.06R                  
HARLAN  *      CLEAR     54  39  58 CALM      30.02S                  
LAMONI         CLEAR     52  37  56 S12       30.05F                  
RED OAK *      CLEAR     55  41  58 SW3       30.04R                  
SHENANDOAH *   CLEAR     57  41  54 S7        30.04R                  
$$
 

SKY/WX - Weather  TMP - Temperature  DP - Dew Point  RH - Relative Humidity
WIND - Wind Direction/Speed PRES - Barometric Pressure